Location: Davayat
(45.9471°N, 3.1105°E)
Time: 13:53:20
(UTC+00:00)

ERS-2 - Pass Details

Date: 01 December 2020
Orbit: 492 x 498 km, 98.6° (Epoch: 27 January)

Event Time Altitude Azimuth Distance (km) Brightness Sun altitude
Exits shadow 18:10:28 22° 356° (N) 1,142 3.8 -21.3°
Maximum altitude 18:12:35 50° 289° (WNW) 642 2.9 -21.6°
Drops below altitude 10° 18:16:08 10° 213° (SSW) 1,699 5.3 -22.2°
Sets 18:18:14 0° 208° (SSW) 2,577 6.3 -22.6°
